Regional Weather Roundup
Issued by NWS Little Rock, AR

Home | Current Version | Previous Version | Text Only | Print | Product List | Glossary Off
Versions: 1 2 3 4 5 6 7 8 9 10 11 12 13 14 15 16 17 18 19 20 21 22 23 24 25 26 27 28 29 30 31 32 33 34 35 36 37 38 39 40 41 42 43 44 45 46 47 48

000
ASUS44 KLZK 280205
RWRLZK

WEATHER ROUNDUP FOR ARKANSAS
NATIONAL WEATHER SERVICE LITTLE ROCK AR
800 PM CST SAT DEC 27 2014

NOTE: "FAIR" INDICATES FEW OR NO CLOUDS BELOW 12,000 FEET WITH NO
SIGNIFICANT WEATHER AND/OR OBSTRUCTIONS TO VISIBILITY.

ARZ001-003-010-029-280300-
NORTHWEST ARKANSAS

CITY           SKY/WX    TMP DP  RH WIND       PRES   REMARKS
FAYETTEVILLE   CLOUDY    31  29  92 N7        30.25F WCI  24
FORT SMITH     CLOUDY    36  31  82 NW7       30.26S
HARRISON       CLOUDY    32  31  96 NW9       30.21F WCI  24
BENTONVILLE    MOCLDY    30  25  80 N6        30.26S WCI  24
ROGERS         MOCLDY    29  27  92 N5        30.25S WCI  24
SILOAM SPGS    PTCLDY    28  21  74 CALM      30.28R
HIGHFILL       PTCLDY    28  25  88 N6        30.25R WCI  22
SPRINGDALE     CLOUDY    32  28  86 NW9       30.26S WCI  24
$$

ARZ004-005-016-280300-
NORTH CENTRAL ARKANSAS

CITY           SKY/WX    TMP DP  RH WIND       PRES   REMARKS
BATESVILLE     CLOUDY    41  39  93 NW7       30.18R
FLIPPIN        CLOUDY    36  30  80 NW8       30.22S
MTN HOME       CLOUDY    35  35 100 VRB6      30.21R WCI  30
$$

ARZ040-041-280300-
WEST CENTRAL ARKANSAS

CITY           SKY/WX    TMP DP  RH WIND       PRES   REMARKS
MENA           CLOUDY    37  36  93 N12       30.20R
MOUNT IDA      CLOUDY    38  36  92 NW8       30.16S
$$

ARZ009-017-025-026-028-280300-
NORTHEAST ARKANSAS

CITY           SKY/WX    TMP DP  RH WIND       PRES   REMARKS
CORNING        LGT RAIN  43  43 100 N9        30.17R
JONESBORO      LGT RAIN  44  43  96 N9        30.14F
NEWPORT        LGT RAIN  43  42  96 N12       30.16F
WALNUT RIDGE   CLOUDY    43  39  87 NW10      30.15S
BLYTHEVILLE    RAIN      46  46 100 N21       30.16R FOG
$$

ARZ022-023-033-042-044-280300-
CENTRAL ARKANSAS

CITY           SKY/WX    TMP DP  RH WIND       PRES   REMARKS
LITTLE ROCK    LGT RAIN  44  40  85 N7        30.16R FOG
N LITTLE ROCK  CLOUDY    42  42 100 N8        30.16R
JACKSONVILLE   DRIZZLE   43  43 100 NW5       30.16R
SEARCY         LGT RAIN  43  41  93 N7        30.17S
HOT SPRINGS    CLOUDY    44  42  93 NW6       30.18R
RUSSELLVILLE   CLOUDY    42  40  92 NW8       30.20R
CLINTON        CLOUDY    39  36  87 NW8       30.22R
$$

ARZ036-280300-
EAST ARKANSAS

CITY           SKY/WX    TMP DP  RH WIND       PRES   REMARKS
WEST MEMPHIS   LGT RAIN  47  47 100 N16       30.12R
$$

ARZ050-053-066-070-073-280300-
SOUTHWEST ARKANSAS

CITY           SKY/WX    TMP DP  RH WIND       PRES   REMARKS
ARKADELPHIA    RAIN      46  46 100 N6        30.18S FOG
CAMDEN         CLOUDY    46  45  93 MISG      30.16R
TEXARKANA      CLOUDY    44  44 100 N8        30.17F
EL DORADO      LGT RAIN  47  45  93 N13       30.14S FOG
DE QUEEN       CLOUDY    41  38  89 NW8       30.19R
$$

ARZ056-057-069-280300-
SOUTHEAST ARKANSAS

CITY           SKY/WX    TMP DP  RH WIND       PRES   REMARKS
PINE BLUFF     CLOUDY    46  43  89 N9        30.14R
STUTTGART      CLOUDY    45  43  93 N13       30.15R
MONTICELLO     CLOUDY    48  44  86 VRB5      30.11S

$$




USA.gov is the U.S. government's official web portal to all federal, state and local government web resources and services.